Temp_Advection
nan nan nan nan nan nan nan nan nan nan nan nan nan nan nan nan nan nan nan nan nan nan nan nan nan nan nan nan nan nan nan nan nan nan nan nan nan nan nan nan nan nan nan
nan 0 0 -0 -0 0 0 0 -0 0 0 0 0 0 0 0 0 0 0 0 0 -0 -0 -0 -0 -0 0 0 0 0 0 0 0 0 0 0 0 0 0 0 0 0 nan
nan -0 -0 -0 0 0 0 0 0 0 0 0 0 -0 0 0 -0 -0 0 -0 0 -0 -0 -0 -0 -0 -0 0 0 0 0 0 0 0 0 0 0 0 0 -0 0 0 nan
nan -0 -0 -0 0 0 0 0 -0 0 0 0 0 -0 0 1 0 0 0 0 0 -0 0 0 -0 0 0 0 0 0 0 0 0 -0 -0 0 0 0 -0 -0 0 0 nan
nan -0 0 0 0 -0 0 0 0 0 0 0 0 0 1 0 0 0 -0 0 0 0 0 -0 -0 -0 -0 -0 0 -0 0 -0 -0 0 -0 0 0 0 -0 -0 0 0 nan
nan -1 0 0 -0 -0 0 0 0 0 0 0 0 0 0 0 -0 -0 0 -0 0 0 -0 0 -0 -0 -0 -0 0 -0 -0 0 0 -0 0 0 0 0 -0 -0 0 0 nan
nan -1 -0 -1 -0 0 1 0 -0 -0 0 0 0 -0 -0 -0 -0 0 0 -0 -0 -0 -0 0 0 0 -0 -0 -0 -0 -0 0 0 0 0 0 0 0 0 -0 -0 0 nan
nan -1 -1 -0 1 1 1 0 -0 -0 -0 0 0 0 0 -0 -0 -0 -0 -0 -0 -0 0 0 0 0 0 -0 -1 -0 -0 0 0 0 0 0 0 0 0 -0 0 0 nan
nan -0 -0 0 0 0 0 -0 -0 0 0 0 0 0 0 -0 -0 -0 -0 -0 -0 0 0 1 0 -0 -0 -0 -0 -1 -0 -0 0 0 0 0 0 -0 0 0 0 -0 nan
nan 0 -0 -1 -0 0 0 0 0 1 0 0 0 0 0 0 0 0 -0 -0 0 -0 -0 -0 0 0 0 -0 -0 -0 -1 -1 0 0 0 0 0 0 0 0 -0 -0 nan
nan -0 -0 -1 -0 1 0 -0 0 1 0 0 0 0 -0 0 0 0 0 -0 -0 -0 -0 -0 -0 -0 -0 -0 1 0 -1 -1 -1 -0 0 0 1 0 -0 0 0 0 nan
nan -0 0 -0 0 1 0 0 0 0 0 0 0 -0 -0 -0 -0 -0 -0 -0 -0 -1 -0 0 0 0 -0 -1 -1 -1 -0 -0 0 0 0 1 0 -0 -0 0 0 0 nan
nan -0 -0 -0 0 -0 0 0 0 0 -0 -0 -0 -0 0 0 -0 -0 -0 0 -0 -1 -1 -1 -1 -0 0 0 0 -0 -0 -1 -1 -0 0 -0 0 1 0 -0 -0 0 nan
nan -0 -1 -0 -0 -0 -0 -0 -0 0 0 -0 -0 -0 0 0 -0 0 0 -0 -1 -1 -1 -1 -1 -0 -0 -1 -1 -0 -0 0 0 0 -0 -0 1 1 -0 -0 0 1 nan
nan -0 -1 -0 -0 -0 -0 0 0 -0 -0 -0 0 -0 -0 0 -0 0 0 -0 -1 -1 -1 -1 -0 -0 -0 -0 -0 -1 -1 -0 0 0 0 0 0 -1 -1 0 1 1 nan
nan -0 0 0 0 -0 -0 -0 -0 -0 -0 -0 -0 -0 -0 -0 -0 0 -0 -0 -0 -0 -1 -1 -1 -1 -1 -0 -0 -0 -0 -1 0 0 -0 -0 -0 -1 -0 1 1 1 nan
nan -0 -0 -0 -0 -0 -0 -0 -0 -0 -0 -0 -0 -0 -0 -0 -0 -0 0 0 0 -1 -1 -1 -1 -1 -1 -1 -1 -0 -0 -0 0 0 -1 -0 0 -0 -1 1 1 1 nan
nan -0 -0 -0 -0 -0 -0 -0 -0 -0 -0 -0 -0 -0 -0 -0 -0 -1 -1 0 0 -0 -1 -3 -2 -1 -1 -1 -1 -1 -1 -0 -1 -0 0 0 0 -1 -0 1 1 1 nan
nan -0 -0 -1 -1 -1 -1 -1 -0 -0 -0 -0 -0 -0 -1 -1 -1 -1 -1 -0 0 -0 -1 -1 -2 -1 -1 -1 -2 -1 -0 -0 -0 -0 -1 0 0 0 0 1 0 0 nan
nan 0 0 -0 -0 -0 -0 -1 -1 -0 -0 -0 -0 -0 -0 -0 -1 -1 -1 -1 -1 -1 -1 -1 -2 -2 -2 -1 -1 -2 -2 -0 -0 -0 -0 -0 -0 -0 -0 0 -0 1 nan
nan -1 -0 -0 -0 -0 -0 -0 -0 -0 -0 -0 -0 -0 -0 -0 -0 -0 -0 -0 -0 -1 -1 -1 -1 -2 -2 -2 -1 -1 -3 -3 -1 -0 -1 -0 -0 -0 -0 -0 -0 -0 nan
nan -0 -0 -0 -0 -0 -0 -0 -0 -0 -0 -0 -0 -0 -0 -0 -0 -0 -0 -0 -0 -0 -0 -0 -1 -1 -1 -1 -1 -1 -2 -2 -3 -2 -2 -1 -0 -1 -1 -0 -0 -0 nan
nan 0 0 -0 0 -0 -0 -0 -0 -0 -0 -0 -0 -0 -0 0 -0 -0 -0 -0 -0 -0 -0 -0 -1 -1 -1 -0 -1 -1 -1 -1 -2 -2 -2 -3 -2 -2 -1 -1 -0 0 nan
nan -0 -0 -0 -0 -0 -0 -0 -1 -1 -1 -0 -0 -0 -0 -0 0 -0 -0 -0 -0 -0 -0 -0 -0 -0 -1 -1 0 -0 -1 -1 -2 -2 -0 -2 -3 -2 -3 -1 -1 -0 nan
nan -0 -0 -0 -0 -0 -0 -0 -0 -1 -1 -1 -1 -0 -0 -0 -0 0 0 -0 -0 -0 -0 0 0 -0 -0 -0 -0 -0 -1 0 -1 -3 -1 -1 -2 -2 -3 -2 -1 -0 nan
nan nan nan nan nan nan nan nan nan nan nan nan nan nan nan nan nan nan nan nan nan nan nan nan nan nan nan nan nan nan nan nan nan nan nan nan nan nan nan nan nan nan nan
Wind_Speed
24 23 22 23 24 23 24 23 22 25 25 25 24 24 24 21 17 23 21 19 20 18 18 18 17 15 15 14 14 13 12 12 12 12 12 11 10 9 8 7 7 7 7
32 29 30 29 31 28 25 23 22 23 25 25 24 24 24 24 19 19 23 23 23 23 21 19 20 18 17 16 16 16 15 14 14 14 14 13 12 11 11 11 10 10 9
30 32 31 31 28 30 29 27 25 22 23 24 26 26 24 26 24 24 24 24 25 26 25 22 21 22 21 19 18 18 17 16 15 15 16 15 15 14 15 14 14 13 12
34 31 33 33 30 32 32 28 26 25 26 26 27 31 31 32 34 32 28 25 27 27 27 26 23 23 24 23 22 20 20 20 20 20 19 19 19 18 17 17 17 17 15
35 36 35 36 35 33 31 31 26 24 23 22 24 28 32 35 28 31 36 31 32 32 30 30 29 27 26 26 26 25 23 23 22 22 22 21 20 19 18 17 17 18 17
34 36 34 35 36 34 31 30 25 22 21 17 16 20 23 23 26 27 29 33 36 33 32 31 30 31 29 27 27 28 26 26 25 24 23 23 22 21 19 18 18 18 18
32 35 38 39 40 38 33 25 18 17 16 16 16 18 25 26 24 24 28 31 35 36 36 35 36 36 34 31 30 30 29 27 28 27 25 25 24 23 22 19 18 18 17
33 31 35 39 37 38 34 28 22 21 21 23 20 20 17 24 24 26 27 29 31 31 34 36 40 39 39 35 33 29 30 28 29 30 30 27 26 25 24 22 19 19 19
29 37 37 37 34 36 35 31 25 21 22 20 21 17 9 15 15 18 24 25 23 24 25 29 34 39 40 38 37 35 33 29 29 30 31 31 30 28 26 24 23 21 21
28 31 37 40 38 33 27 27 23 20 22 20 19 21 26 27 15 11 18 20 19 20 22 23 25 27 33 44 42 39 39 38 34 34 32 32 32 32 30 28 25 21 22
22 29 25 35 40 32 30 25 24 22 19 17 21 21 21 24 27 29 21 22 25 29 29 29 29 29 30 30 35 47 51 51 45 41 37 35 36 34 33 32 29 24 22
4 6 13 5 13 35 32 28 20 15 16 16 18 18 20 21 23 25 27 30 31 37 35 36 34 33 36 36 34 34 34 35 40 39 40 36 37 35 35 32 31 28 26
7 9 8 13 16 7 5 6 8 11 14 18 21 23 25 25 24 22 25 32 31 36 37 38 36 35 33 34 37 40 38 38 34 33 34 35 37 38 35 35 35 31 28
9 8 8 6 4 8 5 5 9 11 11 14 15 18 20 21 24 24 15 14 19 24 29 37 38 38 31 32 33 31 37 44 44 42 39 39 34 34 38 38 39 35 32
11 4 9 8 5 5 1 1 1 4 6 8 9 10 11 10 11 12 11 10 10 7 14 13 16 20 24 30 31 32 36 38 39 39 38 37 35 37 36 40 40 36 34
12 9 9 8 6 4 3 3 3 4 5 6 8 9 11 14 14 14 14 12 14 12 11 15 17 16 23 27 30 36 35 38 45 48 47 46 35 30 35 39 40 41 37
12 11 12 12 11 10 9 9 9 10 11 12 12 14 14 15 15 17 17 17 17 18 19 25 24 23 23 17 19 25 26 38 45 46 45 38 45 50 39 38 41 41 37
13 12 12 12 12 12 12 12 12 12 13 14 15 15 15 17 18 20 22 21 19 18 21 28 31 27 27 28 22 19 24 28 36 32 36 39 36 42 45 37 37 39 38
13 12 12 12 12 12 13 12 12 12 13 14 14 15 15 16 17 17 18 20 24 25 21 23 28 26 25 23 26 23 17 19 22 27 32 37 44 46 40 39 40 44 39
15 15 14 13 12 11 11 14 14 13 12 11 11 12 13 14 15 15 16 16 15 18 19 21 23 24 23 21 21 22 24 24 21 18 17 22 23 29 35 36 39 45 45
15 14 13 13 12 11 11 12 14 13 12 12 11 12 13 12 10 11 12 14 15 17 19 20 21 22 22 21 20 20 20 24 30 24 18 15 18 22 24 28 34 38 41
12 12 12 12 11 11 10 10 12 13 13 13 13 12 10 9 9 11 14 14 15 17 17 17 19 21 22 23 23 23 24 26 26 19 24 24 20 21 22 24 24 27 30
14 14 14 14 13 13 12 12 12 13 13 13 12 11 10 10 11 14 19 20 19 17 15 17 19 20 23 23 25 27 26 27 27 30 29 32 28 28 22 23 22 18 20
14 14 13 13 12 11 12 12 12 14 15 13 13 13 14 14 13 14 18 22 20 19 19 20 19 19 21 22 23 24 26 28 30 29 24 30 32 31 30 24 20 18 16
14 14 13 13 12 12 12 13 14 18 19 19 18 15 15 17 16 14 17 20 24 23 19 19 18 20 23 21 19 20 22 24 26 26 24 26 26 30 31 28 22 18 20
15 14 13 13 13 14 13 13 12 15 18 21 21 20 19 17 14 13 17 20 23 22 22 21 22 23 21 20 19 17 18 20 22 22 11 15 15 18 24 32 30 24 23
Wind_Direction
246 247 243 245 248 248 253 250 250 243 240 238 240 245 240 232 237 228 230 236 251 252 256 253 251 249 250 252 252 249 246 244 241 242 240 240 242 244 256 269 281 284 290
252 245 244 247 249 243 245 249 250 246 244 241 240 241 242 235 235 231 235 236 244 253 255 253 252 254 252 250 251 251 250 249 246 243 242 242 241 247 257 265 271 276 282
255 245 246 245 246 242 246 249 252 249 244 240 242 236 233 229 234 233 235 246 244 252 258 257 254 253 255 256 252 251 250 248 247 248 247 244 246 252 257 261 266 271 275
253 250 251 246 242 240 240 246 248 246 246 242 242 238 233 228 227 230 228 242 245 248 253 260 258 256 253 253 254 253 252 254 251 250 248 250 253 254 258 264 265 265 270
257 255 251 247 247 241 240 242 237 238 240 246 256 254 238 228 239 242 232 233 244 248 254 259 262 261 256 252 251 251 252 250 253 252 251 249 252 256 261 265 266 262 263
261 255 254 247 245 243 241 237 227 227 234 243 260 269 268 264 258 251 239 236 239 248 251 253 258 263 259 256 253 250 252 252 253 253 252 249 252 255 260 264 263 261 261
264 259 251 247 243 241 236 220 224 233 247 249 253 260 267 262 254 254 253 247 244 244 243 250 256 260 261 263 257 254 251 253 252 254 254 251 249 252 257 263 262 260 254
270 258 256 249 243 234 227 220 231 241 249 248 251 254 268 278 262 259 259 262 260 254 255 257 253 252 259 259 259 260 255 254 253 252 254 253 251 252 254 257 262 258 249
267 262 255 246 240 232 234 236 233 236 251 257 249 245 219 235 260 270 264 255 259 261 263 262 257 255 259 257 258 259 254 254 255 255 254 255 252 251 252 255 257 255 253
267 259 253 257 236 230 225 230 244 245 246 252 255 257 256 256 259 258 250 252 251 256 264 265 266 263 260 254 259 257 258 255 261 259 256 255 253 254 253 254 253 253 250
283 274 274 263 249 222 233 249 234 232 240 248 254 268 267 268 267 262 253 247 255 266 268 266 269 267 266 265 259 258 258 261 261 263 256 255 252 250 254 252 250 247 251
303 322 295 279 216 210 214 228 223 228 245 260 266 272 275 278 274 273 269 273 274 279 281 275 273 271 270 270 264 264 262 265 258 255 258 253 249 248 249 249 246 242 249
299 288 1 10 251 341 155 207 251 265 267 268 271 271 273 271 277 283 283 282 274 274 278 279 279 277 274 276 268 264 264 262 260 254 255 258 260 247 244 245 242 239 244
42 359 334 314 15 309 347 277 266 266 274 278 275 271 263 265 273 267 270 288 292 281 284 282 283 282 281 283 277 276 271 261 258 256 256 241 247 250 242 244 241 239 241
29 331 27 23 28 26 322 258 247 267 271 278 282 284 273 264 263 268 285 297 320 296 298 301 295 298 283 287 284 283 275 261 258 249 244 247 249 251 245 245 244 240 242
28 358 344 353 357 353 355 345 321 301 307 312 297 303 299 306 291 289 293 302 310 303 295 295 283 288 278 275 277 270 275 269 255 259 252 240 244 253 251 243 241 241 241
3 355 349 341 340 338 330 326 314 312 312 307 300 293 291 297 301 303 310 306 309 309 302 292 292 296 294 298 290 274 279 271 262 250 255 258 248 244 251 243 244 238 240
350 344 336 328 324 324 318 317 316 313 309 305 306 306 306 299 292 292 292 300 313 305 301 299 301 305 303 293 291 305 270 270 274 261 252 258 248 237 241 238 235 238 245
336 333 331 329 328 328 319 316 315 313 312 310 307 307 307 304 304 301 294 284 278 290 303 300 295 300 304 308 296 287 295 286 265 275 256 262 252 236 237 240 239 243 242
328 330 331 331 330 335 321 324 326 325 321 315 312 308 307 312 313 309 312 312 307 304 302 304 305 303 302 301 302 299 280 276 289 273 267 268 261 254 249 251 251 252 253
333 336 337 336 334 331 325 322 325 328 331 329 325 318 317 321 312 307 312 299 306 307 309 310 311 313 313 309 308 301 296 280 274 286 286 280 264 263 256 253 261 262 260
341 343 342 342 341 339 332 325 324 329 332 330 328 328 325 330 336 324 319 312 315 317 314 313 310 310 310 311 309 307 301 296 302 275 275 268 270 263 259 260 261 264 263
342 341 340 339 339 338 333 327 326 330 330 328 324 322 321 327 324 321 317 315 320 321 321 318 309 308 307 311 310 306 300 296 290 280 284 286 278 277 271 272 269 263 261
339 338 337 337 339 339 335 337 336 331 328 327 322 317 312 310 311 316 308 309 316 320 327 327 321 320 320 315 309 306 302 298 293 291 287 287 279 282 275 274 272 271 278
334 334 335 335 334 339 341 343 334 327 327 327 329 326 316 306 292 293 296 300 312 316 319 313 311 316 314 310 307 306 307 307 303 301 291 287 278 278 278 274 267 264 264
327 327 328 331 333 331 327 320 319 305 309 315 317 317 317 317 309 296 293 295 298 306 312 307 309 315 310 304 306 302 304 304 304 303 294 314 309 302 289 272 271 264 261
Height
1515 1516 1517 1517 1517 1517 1517 1518 1518 1519 1520 1522 1523 1524 1526 1527 1528 1529 1530 1531 1533 1533 1534 1534 1535 1536 1537 1538 1538 1539 1539 1540 1540 1541 1541 1541 1542 1541 1542 1541 1541 1541 1540
1510 1511 1512 1511 1512 1511 1512 1513 1514 1515 1516 1517 1518 1519 1519 1522 1524 1525 1526 1527 1528 1529 1530 1531 1531 1532 1533 1534 1534 1535 1536 1537 1537 1537 1538 1538 1539 1539 1539 1539 1539 1538 1538
1503 1504 1505 1506 1507 1507 1507 1507 1509 1510 1510 1511 1512 1514 1515 1516 1517 1520 1521 1522 1523 1524 1525 1527 1527 1528 1528 1529 1530 1531 1532 1533 1533 1534 1535 1535 1535 1536 1536 1536 1536 1536 1535
1496 1498 1499 1500 1501 1502 1501 1502 1502 1504 1505 1505 1506 1507 1509 1510 1513 1513 1515 1517 1517 1519 1519 1521 1522 1523 1524 1525 1526 1526 1527 1528 1529 1530 1530 1531 1532 1531 1532 1532 1532 1532 1532
1491 1491 1492 1493 1495 1495 1495 1497 1496 1498 1499 1500 1499 1495 1497 1499 1503 1504 1508 1511 1512 1513 1515 1516 1516 1518 1519 1520 1521 1522 1522 1523 1524 1525 1525 1525 1527 1527 1528 1527 1528 1528 1528
1484 1485 1486 1487 1488 1489 1489 1491 1492 1492 1494 1494 1493 1494 1496 1498 1499 1499 1501 1504 1506 1507 1508 1509 1510 1511 1513 1514 1515 1516 1517 1518 1518 1519 1519 1520 1521 1522 1523 1523 1523 1524 1525
1477 1477 1479 1480 1481 1481 1483 1486 1487 1488 1489 1491 1491 1490 1492 1492 1492 1493 1495 1496 1498 1499 1501 1502 1503 1504 1506 1508 1509 1510 1511 1512 1513 1513 1513 1514 1515 1516 1518 1518 1518 1519 1520
1470 1471 1471 1470 1473 1474 1475 1478 1480 1481 1483 1485 1486 1487 1485 1488 1485 1487 1488 1488 1489 1491 1492 1494 1496 1496 1498 1500 1502 1504 1505 1506 1507 1508 1509 1509 1510 1510 1511 1512 1513 1514 1515
1463 1465 1466 1465 1467 1469 1470 1473 1474 1474 1477 1480 1482 1482 1482 1481 1479 1480 1481 1483 1483 1484 1484 1486 1488 1489 1491 1492 1494 1497 1498 1499 1501 1502 1503 1503 1504 1505 1506 1506 1507 1507 1509
1455 1455 1457 1461 1457 1462 1464 1468 1469 1470 1473 1472 1475 1477 1477 1477 1475 1475 1476 1477 1479 1477 1478 1479 1480 1481 1483 1484 1484 1487 1489 1492 1493 1495 1496 1497 1497 1499 1499 1501 1502 1502 1503
1451 1451 1452 1452 1444 1450 1456 1457 1461 1463 1465 1467 1468 1469 1471 1471 1471 1471 1470 1471 1472 1472 1473 1473 1474 1474 1476 1477 1476 1477 1479 1480 1484 1486 1488 1489 1489 1490 1493 1494 1494 1496 1498
1450 1450 1450 1449 1448 1440 1447 1453 1453 1456 1459 1461 1463 1464 1467 1468 1466 1465 1463 1462 1462 1463 1465 1466 1465 1464 1465 1466 1468 1470 1470 1470 1472 1475 1478 1480 1480 1481 1484 1485 1487 1489 1492
1447 1445 1445 1446 1442 1436 1438 1445 1449 1453 1456 1458 1458 1459 1462 1463 1461 1459 1458 1455 1454 1456 1456 1455 1455 1455 1456 1457 1456 1458 1460 1461 1464 1466 1468 1468 1472 1472 1475 1477 1478 1481 1483
1444 1443 1443 1446 1443 1445 1439 1445 1448 1449 1452 1454 1454 1454 1456 1456 1456 1454 1454 1452 1448 1448 1446 1445 1446 1445 1446 1447 1448 1450 1450 1450 1453 1457 1457 1459 1462 1462 1465 1466 1468 1471 1474
1447 1449 1452 1452 1450 1443 1448 1446 1447 1449 1448 1449 1449 1449 1450 1450 1449 1448 1449 1446 1445 1445 1441 1440 1439 1439 1439 1440 1440 1440 1441 1441 1443 1446 1447 1449 1452 1455 1455 1458 1460 1463 1467
1450 1452 1452 1451 1450 1451 1449 1447 1446 1445 1444 1444 1447 1447 1447 1447 1444 1444 1444 1443 1444 1441 1439 1435 1434 1434 1433 1431 1430 1430 1431 1431 1432 1434 1436 1438 1439 1443 1446 1449 1452 1455 1457
1456 1454 1452 1451 1450 1448 1445 1444 1444 1442 1441 1444 1443 1443 1442 1442 1441 1442 1440 1438 1437 1438 1432 1429 1430 1428 1427 1423 1422 1419 1420 1420 1421 1423 1425 1427 1428 1433 1437 1438 1442 1445 1448
1457 1455 1453 1450 1448 1445 1443 1442 1441 1440 1440 1440 1440 1439 1436 1437 1435 1435 1434 1433 1433 1434 1428 1424 1424 1420 1420 1420 1417 1414 1412 1411 1411 1411 1415 1417 1418 1422 1427 1428 1432 1436 1439
1456 1454 1452 1450 1447 1445 1444 1442 1440 1439 1438 1438 1437 1434 1433 1432 1431 1430 1429 1427 1427 1428 1425 1422 1416 1415 1415 1412 1410 1409 1406 1405 1403 1403 1403 1407 1409 1412 1415 1418 1421 1424 1427
1453 1451 1449 1447 1446 1443 1441 1438 1437 1435 1435 1435 1433 1432 1430 1428 1426 1426 1424 1423 1421 1420 1418 1416 1415 1413 1411 1409 1409 1403 1399 1398 1398 1397 1397 1397 1398 1402 1404 1405 1410 1414 1414
1450 1447 1445 1443 1441 1440 1438 1436 1435 1435 1434 1432 1430 1429 1427 1426 1425 1423 1423 1421 1418 1417 1416 1415 1412 1408 1405 1404 1403 1399 1395 1392 1392 1393 1391 1392 1392 1394 1395 1398 1400 1400 1401
1448 1446 1444 1442 1441 1439 1437 1436 1434 1432 1430 1428 1427 1426 1425 1425 1423 1422 1419 1418 1416 1413 1412 1409 1407 1404 1403 1401 1398 1396 1393 1391 1388 1388 1387 1385 1386 1387 1388 1389 1389 1389 1389
1446 1444 1442 1440 1438 1436 1434 1432 1430 1428 1427 1426 1425 1423 1421 1420 1419 1418 1416 1413 1412 1411 1409 1406 1403 1401 1397 1396 1393 1391 1389 1387 1385 1384 1384 1377 1379 1378 1379 1380 1381 1380 1381
1445 1442 1440 1437 1435 1434 1432 1430 1428 1426 1425 1423 1421 1419 1417 1416 1415 1414 1412 1410 1408 1407 1404 1401 1398 1396 1393 1392 1389 1387 1383 1379 1378 1377 1379 1372 1372 1371 1371 1372 1372 1372 1374
1443 1441 1439 1436 1434 1432 1430 1428 1426 1424 1421 1420 1418 1416 1414 1412 1411 1410 1409 1406 1404 1402 1401 1398 1396 1393 1390 1387 1385 1381 1378 1374 1370 1370 1371 1369 1367 1365 1364 1363 1365 1367 1370
1440 1438 1436 1434 1431 1429 1427 1426 1424 1420 1418 1415 1413 1412 1410 1408 1406 1405 1404 1402 1399 1397 1394 1391 1389 1387 1385 1382 1380 1377 1374 1372 1370 1366 1368 1366 1363 1363 1357 1354 1358 1361 1363